TimeEDT,TemperatureF,Dew PointF,Humidity,Sea Level PressureIn,VisibilityMPH,Wind Direction,Wind SpeedMPH,Gust SpeedMPH,PrecipitationIn,Events,Conditions,WindDirDegrees,DateUTC
12:14 AM,46.4,45.5,97,30.16,10.0,SE,3.5,-,N/A,,Clear,140,2013-09-24 04:14:00
12:35 AM,45.7,45.1,98,30.16,10.0,SSE,3.5,-,N/A,,Clear,160,2013-09-24 04:35:00
12:54 AM,45.9,45.3,98,30.16,10.0,Calm,Calm,-,N/A,,Clear,0,2013-09-24 04:54:00
1:15 AM,45.0,44.6,99,30.16,10.0,SSE,4.6,-,N/A,,Clear,150,2013-09-24 05:15:00
1:35 AM,45.5,44.8,97,30.16,10.0,Calm,Calm,-,N/A,,Clear,0,2013-09-24 05:35:00
1:54 AM,44.8,44.1,97,30.16,10.0,Calm,Calm,-,N/A,,Clear,0,2013-09-24 05:54:00
2:15 AM,44.6,44.1,98,30.16,10.0,SE,3.5,-,N/A,,Clear,130,2013-09-24 06:15:00
2:35 AM,44.1,43.7,99,30.17,10.0,Calm,Calm,-,N/A,,Clear,0,2013-09-24 06:35:00
2:54 AM,44.1,43.7,99,30.16,10.0,ESE,3.5,-,N/A,,Clear,110,2013-09-24 06:54:00
3:15 AM,43.9,43.3,98,30.16,10.0,SE,3.5,-,N/A,,Clear,130,2013-09-24 07:15:00
3:34 AM,43.7,43.2,98,30.16,10.0,ESE,3.5,-,N/A,,Clear,120,2013-09-24 07:34:00
3:54 AM,43.7,43.3,99,30.16,10.0,SE,3.5,-,N/A,,Clear,130,2013-09-24 07:54:00
4:15 AM,42.8,42.3,98,30.16,10.0,Calm,Calm,-,N/A,,Clear,0,2013-09-24 08:15:00
4:34 AM,42.8,42.4,99,30.16,10.0,Calm,Calm,-,N/A,,Clear,0,2013-09-24 08:34:00
4:55 AM,42.3,42.3,100,30.17,10.0,SE,3.5,-,N/A,,Clear,140,2013-09-24 08:55:00
5:15 AM,42.8,42.3,98,30.17,10.0,Calm,Calm,-,N/A,,Clear,0,2013-09-24 09:15:00
5:34 AM,42.8,42.4,99,30.17,10.0,ESE,3.5,-,N/A,,Clear,120,2013-09-24 09:34:00
5:55 AM,42.6,42.4,99,30.17,10.0,SE,3.5,-,N/A,,Clear,130,2013-09-24 09:55:00
6:14 AM,43.0,42.8,99,30.17,10.0,ESE,3.5,-,N/A,,Clear,120,2013-09-24 10:14:00
6:34 AM,43.0,42.8,99,30.17,10.0,ESE,3.5,-,N/A,,Clear,120,2013-09-24 10:34:00
6:55 AM,42.4,42.3,99,30.18,10.0,ESE,3.5,-,N/A,,Clear,110,2013-09-24 10:55:00
7:14 AM,42.4,42.3,99,30.19,10.0,ESE,4.6,-,N/A,,Clear,120,2013-09-24 11:14:00
7:35 AM,42.1,41.9,99,30.19,10.0,SE,3.5,-,N/A,,Clear,130,2013-09-24 11:35:00
7:55 AM,42.1,42.1,100,30.19,10.0,SE,4.6,-,N/A,,Clear,130,2013-09-24 11:55:00
8:14 AM,42.8,42.8,100,30.19,10.0,SE,4.6,-,N/A,,Clear,140,2013-09-24 12:14:00
8:35 AM,44.4,44.1,99,30.18,10.0,SE,4.6,-,N/A,,Clear,130,2013-09-24 12:35:00
8:55 AM,46.0,45.5,98,30.19,10.0,SE,4.6,-,N/A,,Clear,130,2013-09-24 12:55:00
9:14 AM,48.0,47.1,97,30.19,10.0,SE,5.8,-,N/A,,Clear,140,2013-09-24 13:14:00
9:35 AM,50.0,48.2,94,30.19,10.0,SE,5.8,-,N/A,,Clear,140,2013-09-24 13:35:00
9:55 AM,51.6,48.9,90,30.18,10.0,SSE,5.8,-,N/A,,Clear,150,2013-09-24 13:55:00
10:14 AM,53.2,48.9,85,30.18,10.0,SSE,4.6,-,N/A,,Clear,150,2013-09-24 14:14:00
10:35 AM,54.7,48.9,81,30.18,10.0,SE,4.6,-,N/A,,Clear,140,2013-09-24 14:35:00
10:54 AM,55.8,48.2,76,30.17,10.0,SSE,3.5,-,N/A,,Clear,150,2013-09-24 14:54:00
11:15 AM,57.2,48.7,73,30.17,10.0,ESE,4.6,-,N/A,,Clear,120,2013-09-24 15:15:00
11:35 AM,58.3,48.9,71,30.17,10.0,ESE,5.8,-,N/A,,Clear,110,2013-09-24 15:35:00
11:54 AM,59.0,47.8,66,30.16,10.0,Calm,Calm,-,N/A,,Clear,0,2013-09-24 15:54:00
12:15 PM,59.7,47.1,63,30.15,10.0,Calm,Calm,-,N/A,,Clear,0,2013-09-24 16:15:00
12:35 PM,59.9,47.3,63,30.15,10.0,ENE,4.6,-,N/A,,Clear,70,2013-09-24 16:35:00
12:54 PM,60.4,48.0,64,30.14,10.0,East,3.5,-,N/A,,Clear,100,2013-09-24 16:54:00
1:15 PM,60.4,47.3,62,30.14,10.0,ENE,4.6,-,N/A,,Clear,70,2013-09-24 17:15:00
1:34 PM,61.0,47.7,62,30.13,10.0,East,5.8,-,N/A,,Clear,80,2013-09-24 17:34:00
1:54 PM,61.5,47.8,61,30.13,10.0,East,3.5,-,N/A,,Clear,90,2013-09-24 17:54:00
2:15 PM,60.6,50.5,69,30.11,10.0,NW,8.1,-,N/A,,Clear,320,2013-09-24 18:15:00
2:34 PM,60.8,50.2,68,30.11,10.0,NW,9.2,-,N/A,,Clear,320,2013-09-24 18:34:00
2:55 PM,60.8,50.4,68,30.10,10.0,NW,6.9,-,N/A,,Clear,320,2013-09-24 18:55:00
3:15 PM,60.3,50.0,69,30.10,10.0,NNW,8.1,-,N/A,,Clear,340,2013-09-24 19:15:00
3:34 PM,61.0,50.4,68,30.10,10.0,NW,8.1,-,N/A,,Clear,320,2013-09-24 19:34:00
3:55 PM,60.6,49.8,68,30.09,10.0,NNW,6.9,-,N/A,,Clear,340,2013-09-24 19:55:00
4:15 PM,60.8,49.6,67,30.09,10.0,NNW,4.6,-,N/A,,Clear,330,2013-09-24 20:15:00
4:34 PM,60.8,50.0,68,30.08,10.0,North,9.2,-,N/A,,Clear,350,2013-09-24 20:34:00
4:55 PM,61.0,50.7,69,30.08,10.0,NNW,9.2,-,N/A,,Clear,330,2013-09-24 20:55:00
5:15 PM,60.3,50.5,70,30.08,10.0,NNW,8.1,-,N/A,,Clear,330,2013-09-24 21:15:00
5:34 PM,59.9,50.4,71,30.07,10.0,NNW,5.8,-,N/A,,Clear,340,2013-09-24 21:34:00
5:55 PM,59.7,50.0,70,30.07,10.0,North,5.8,-,N/A,,Clear,350,2013-09-24 21:55:00
6:14 PM,59.5,51.3,74,30.07,10.0,North,5.8,-,N/A,,Clear,350,2013-09-24 22:14:00
6:34 PM,59.0,50.9,74,30.07,10.0,North,4.6,-,N/A,,Clear,350,2013-09-24 22:34:00
6:55 PM,58.5,50.9,76,30.07,10.0,North,5.8,-,N/A,,Clear,360,2013-09-24 22:55:00
7:14 PM,57.9,51.1,78,30.07,10.0,North,6.9,-,N/A,,Clear,10,2013-09-24 23:14:00
7:34 PM,57.2,51.3,81,30.06,10.0,North,5.8,-,N/A,,Clear,10,2013-09-24 23:34:00
7:55 PM,57.2,52.7,85,30.06,10.0,NNE,3.5,-,N/A,,Clear,20,2013-09-24 23:55:00
8:14 PM,56.8,52.3,85,30.05,10.0,NNE,4.6,-,N/A,,Clear,30,2013-09-25 00:14:00
8:35 PM,56.5,52.5,87,30.05,10.0,NNE,4.6,-,N/A,,Clear,20,2013-09-25 00:35:00
8:55 PM,56.8,53.4,88,30.05,10.0,Calm,Calm,-,N/A,,Clear,0,2013-09-25 00:55:00
9:14 PM,56.3,52.7,88,30.06,10.0,East,4.6,-,N/A,,Clear,100,2013-09-25 01:14:00
9:35 PM,56.3,52.2,86,30.05,10.0,East,5.8,-,N/A,,Clear,90,2013-09-25 01:35:00
9:55 PM,55.6,51.6,87,30.05,10.0,East,4.6,-,N/A,,Clear,80,2013-09-25 01:55:00
10:14 PM,54.9,51.1,87,30.05,10.0,East,4.6,-,N/A,,Clear,90,2013-09-25 02:14:00
10:35 PM,54.1,50.2,86,30.04,10.0,Calm,Calm,-,N/A,,Clear,0,2013-09-25 02:35:00
10:54 PM,52.2,50.2,93,30.05,10.0,SE,4.6,-,N/A,,Clear,130,2013-09-25 02:54:00
11:15 PM,52.7,50.7,93,30.05,10.0,SE,5.8,-,N/A,,Clear,130,2013-09-25 03:15:00
11:34 PM,53.2,50.9,92,30.05,10.0,SE,4.6,-,N/A,,Clear,130,2013-09-25 03:34:00
11:55 PM,52.2,50.9,95,30.05,10.0,SE,6.9,-,N/A,,Clear,130,2013-09-25 03:55:00